This is the latest recevied weather packets stored in our database for station/object ESUT. If no packets are shown the sender has not sent any weather packets the latest 1 day(s).
| Time | Temp. | Humidity | Pressure | Rain* | Wind** | Luminosity | Snow |
|---|---|---|---|---|---|---|---|
| 1778032986 | -1.11° C | 10% | - | - | 0.89 m/s, 220° | - | - |
| 1778031187 | -1.11° C | 10% | - | - | 0 m/s | - | - |
| 1778029387 | -1.11° C | 10% | - | - | 0.89 m/s, 90° | - | - |
| 1778027586 | -1.11° C | 10% | - | - | 0.89 m/s, 0° | - | - |
| 1778025787 | -1.11° C | 92% | 1002 hPa | - | 0.89 m/s, 140° | - | - |
| 1778023987 | 0° C | 80% | 1001 hPa | - | 1.34 m/s, 0° | - | - |
| 1778022186 | 0° C | 80% | 1002 hPa | - | 0.89 m/s, 190° | - | - |
| 1778020386 | 0° C | 80% | 1002 hPa | - | 1.34 m/s, 0° | - | - |
| 1778018586 | 0° C | 80% | 1002 hPa | - | 0.89 m/s, 0° | - | - |
| 1778016786 | 0° C | 80% | 1002 hPa | - | 0.89 m/s, 0° | - | - |
| 1778014986 | 0° C | 80% | 1002 hPa | - | 1.34 m/s, 0° | - | - |
| 1778013186 | 0° C | 80% | 1002 hPa | - | 0.89 m/s, 0° | - | - |
| 1778011386 | 0° C | 80% | 1002 hPa | - | 0.89 m/s, 0° | - | - |
| 1778009586 | 0° C | 80% | 1002 hPa | - | 1.34 m/s, 330° | - | - |
| 1778007786 | 0° C | 80% | 1002 hPa | - | 1.34 m/s, 0° | - | - |
| 1778005986 | 0° C | 74% | 1002 hPa | - | 2.24 m/s, 280° | - | - |
| 1778004187 | 0.56° C | 69% | 1002 hPa | - | 3.13 m/s, 320° | - | - |
| 1778002387 | 0.56° C | 64% | 1002 hPa | - | 3.13 m/s, 280° | - | - |
| 1778000587 | 1.67° C | 59% | 1001 hPa | - | 4.02 m/s, 320° | - | - |
| 1777998787 | 1.67° C | 55% | 1001 hPa | - | 5.36 m/s, 310° | - | - |
| 1777996987 | 1.67° C | 59% | 1001 hPa | - | 6.26 m/s, 310° | - | - |
| 1777995187 | 1.67° C | 64% | 1001 hPa | - | 4.02 m/s, 320° | - | - |
| 1777993386 | 1.67° C | 69% | 1002 hPa | - | 5.36 m/s, 320° | - | - |
| 1777991587 | 1.67° C | 64% | 1001 hPa | - | 5.36 m/s, 280° | - | - |
| 1777989787 | 1.67° C | 64% | 1001 hPa | - | 6.26 m/s, 310° | - | - |
* Rain since midnight (hover to see other rain measurements)
** Current wind speed in m/s (hover to see current wind gust speed)